Location: Horowhenua
(40.7500°S, 175.3333°E)
Time: 05:54:55
(UTC+00:00)

Cosmos 2082 Rocket - Pass Details

Date: 28 January 2023
Orbit: 834 x 852 km, 71.0° (Epoch: 01 April)

Event Time Altitude Azimuth Distance (km) Brightness Sun altitude
Rises 13:12:58 0° 202° (SSW) 3,424 6.1 -30.3°
Reaches altitude 10° 13:15:27 10° 200° (SSW) 2,485 5.3 -30.2°
Enters shadow 13:20:51 71° 143° (SE) 899 2.3 -30.0°
